Terminal Aerodrome Forecast
Issued by NWS

Home | Current Version | Previous Version | Text Only | Print | Product List | Glossary On
Versions: 1 2 3 4 5 6 7 8 9 10 11 12 13 14 15 16 17 18 19 20 21 22 23 24 25 26 27 28 29 30 31 32 33 34
000
FTUS44 KOUN 292124 AAA
TAFPNC
TAF AMD
KPNC 292124Z 2921/3018 21014G22KT P6SM BKN025
     FM300000 25012KT P6SM VCSH OVC015
     FM300900 29014KT P6SM OVC012
      TEMPO 3009/3012 6SM -RA=

USA.gov is the U.S. government's official web portal to all federal, state and local government web resources and services.